| time (UTC) | temp C | wind direction | speed KPH | gust KPH | rain 1hr cm | rain 24hr cm | rain mn cm | humidity % | barometer mb |
| 20260906151906 | 30 | 285 | 9.7 | 14.5 | 0.00 | 2.87 | 0.00 | 72 | 1013.1 |
| 20260906150853 | 30 | 273 | 9.7 | 17.7 | 0.00 | 2.87 | 0.00 | 74 | 1013.1 |
| 20260906145840 | 30 | 269 | 11.3 | 17.7 | 0.00 | 2.87 | 0.00 | 74 | 1013.1 |
| 20260906142559 | 29 | 288 | 4.8 | 12.9 | 0.00 | 2.87 | 0.00 | 79 | 1013.0 |
| 20260906140438 | 28 | 281 | 8.0 | 12.9 | 0.00 | 2.87 | 0.00 | 81 | 1013.0 |
| 20260906135402 | 28 | 289 | 9.7 | 12.9 | 0.00 | 2.87 | 0.00 | 82 | 1013.0 |
| 20260906134422 | 28 | 300 | 8.0 | 11.3 | 0.00 | 2.87 | 0.00 | 82 | 1013.0 |
| 20260906133422 | 28 | 265 | 9.7 | 12.9 | 0.00 | 2.87 | 0.00 | 84 | 1013.0 |
| 20260906132348 | 27 | 271 | 11.3 | 12.9 | 0.00 | 2.87 | 0.00 | 84 | 1013.1 |
| 20260906131314 | 27 | 269 | 11.3 | 12.9 | 0.00 | 2.87 | 0.00 | 84 | 1013.2 |
| 20260906124122 | 26 | 273 | 11.3 | 14.5 | 0.00 | 2.87 | 0.00 | 85 | 1012.8 |
| 20260906123139 | 26 | 294 | 12.9 | 16.1 | 0.00 | 2.87 | 0.00 | 85 | 1013.0 |
| 20260906122129 | 26 | 296 | 14.5 | 17.7 | 0.00 | 2.87 | 0.00 | 86 | 1012.8 |
| 20260906121119 | 26 | 284 | 16.1 | 19.3 | 0.00 | 2.87 | 0.00 | 86 | 1012.7 |
| 20260906120101 | 26 | 278 | 14.5 | 19.3 | 0.00 | 2.87 | 0.00 | 87 | 1012.8 |
| 20260906115039 | 26 | 275 | 14.5 | 17.7 | 0.00 | 2.87 | 0.00 | 86 | 1012.7 |
| 20260906114006 | 26 | 269 | 14.5 | 17.7 | 0.00 | 2.87 | 0.00 | 86 | 1012.6 |
| 20260906111811 | 26 | 280 | 16.1 | 20.9 | 0.00 | 2.87 | 0.00 | 85 | 1012.2 |
| 20260906105621 | 26 | 297 | 14.5 | 17.7 | 0.00 | 2.87 | 0.00 | 85 | 1011.8 |
| 20260906104549 | 26 | 289 | 12.9 | 16.1 | 0.00 | 2.87 | 0.00 | 85 | 1011.8 |
| 20260906103540 | 26 | 279 | 11.3 | 16.1 | 0.00 | 2.87 | 0.00 | 85 | 1011.6 |
| 20260906102556 | 26 | 288 | 11.3 | 16.1 | 0.00 | 2.87 | 0.00 | 86 | 1011.5 |
| 20260906101532 | 26 | 290 | 11.3 | 14.5 | 0.00 | 2.87 | 0.00 | 86 | 1011.4 |
| 20260906100525 | 26 | 300 | 8.0 | 12.9 | 0.00 | 2.87 | 0.00 | 86 | 1011.5 |
| 20260906095530 | 26 | 275 | 9.7 | 12.9 | 0.00 | 2.87 | 0.00 | 86 | 1011.4 |
| 20260906093405 | 26 | 278 | 8.0 | 12.9 | 0.00 | 2.87 | 0.00 | 86 | 1011.1 |
| 20260906092335 | 26 | 276 | 8.0 | 12.9 | 0.00 | 2.87 | 0.00 | 86 | 1011.1 |
| 20260906085015 | 25 | 259 | 14.5 | 17.7 | 0.00 | 2.87 | 0.00 | 86 | 1010.9 |
| 20260906084020 | 26 | 236 | 12.9 | 16.1 | 0.00 | 2.87 | 0.00 | 87 | 1010.8 |
| 20260906081857 | 26 | 227 | 14.5 | 19.3 | 0.00 | 2.87 | 0.00 | 86 | 1010.7 |
| 20260906080844 | 26 | 232 | 14.5 | 19.3 | 0.00 | 2.87 | 0.00 | 86 | 1010.7 |
| 20260906075812 | 26 | 233 | 16.1 | 19.3 | 0.00 | 2.87 | 0.00 | 86 | 1010.7 |
| 20260906074805 | 26 | 259 | 12.9 | 19.3 | 0.00 | 2.87 | 0.00 | 86 | 1010.8 |
| 20260906073816 | 26 | 257 | 14.5 | 19.3 | 0.00 | 2.87 | 0.00 | 86 | 1010.8 |
| 20260906072822 | 26 | 248 | 14.5 | 20.9 | 0.00 | 2.87 | 0.00 | 86 | 1011.0 |
| 20260906071805 | 26 | 242 | 16.1 | 20.9 | 0.00 | 2.87 | 0.00 | 86 | 1010.9 |
| 20260906070807 | 26 | 237 | 14.5 | 17.7 | 0.00 | 2.87 | 0.00 | 86 | 1011.0 |
| 20260906065803 | 26 | 226 | 12.9 | 17.7 | 0.00 | 2.87 | 0.00 | 86 | 1011.3 |
| 20260906064752 | 26 | 235 | 12.9 | 17.7 | 0.00 | 2.87 | 0.00 | 86 | 1011.4 |
| 20260906063724 | 26 | 226 | 12.9 | 19.3 | 0.00 | 2.87 | 0.00 | 87 | 1011.6 |
| 20260906062656 | 26 | 224 | 14.5 | 19.3 | 0.00 | 2.87 | 0.00 | 87 | 1011.8 |
| 20260906061644 | 26 | 223 | 11.3 | 16.1 | 0.00 | 2.87 | 0.00 | 86 | 1011.8 |
| 20260906060633 | 26 | 203 | 8.0 | 12.9 | 0.00 | 2.87 | 0.00 | 86 | 1012.2 |
| 20260906055604 | 26 | 217 | 11.3 | 16.1 | 0.00 | 2.87 | 0.00 | 86 | 1012.3 |
| 20260906054604 | 26 | 209 | 14.5 | 19.3 | 0.00 | 2.87 | 0.00 | 86 | 1012.1 |
| 20260906053528 | 26 | 210 | 14.5 | 19.3 | 0.00 | 2.87 | 0.00 | 86 | 1012.1 |
| 20260906052531 | 26 | 229 | 12.9 | 16.1 | 0.00 | 2.87 | 0.00 | 86 | 1012.3 |
| 20260906051521 | 26 | 217 | 11.3 | 16.1 | 0.00 | 2.87 | 0.00 | 87 | 1012.7 |
| 20260906050458 | 26 | 201 | 9.7 | 16.1 | 0.00 | 2.87 | 0.00 | 87 | 1012.7 |
| 20260906045500 | 26 | 216 | 9.7 | 16.1 | 0.00 | 2.87 | 0.00 | 88 | 1012.7 |
| 20260906044452 | 26 | 209 | 9.7 | 14.5 | 0.00 | 2.87 | 0.00 | 88 | 1012.5 |
| 20260906043451 | 26 | 190 | 11.3 | 16.1 | 0.00 | 2.87 | 0.00 | 87 | 1012.5 |
| 20260906042456 | 26 | 195 | 9.7 | 16.1 | 0.00 | 2.87 | 0.00 | 87 | 1012.6 |
| 20260906041504 | 26 | 221 | 0.0 | 14.5 | 0.00 | 2.87 | 0.00 | 87 | 1012.6 |
| 20260906040523 | 26 | 239 | 9.7 | 14.5 | 0.00 | 2.87 | 0.00 | 86 | 1012.6 |
| 20260906035528 | 26 | 223 | 8.0 | 12.9 | 0.00 | 2.87 | 2.87 | 86 | 1012.6 |
| 20260906034453 | 26 | 238 | 3.2 | 8.0 | 0.00 | 2.87 | 2.87 | 86 | 1012.5 |
| 20260906033448 | 26 | 223 | 6.4 | 9.7 | 0.00 | 2.87 | 2.87 | 86 | 1012.5 |
| 20260906032447 | 26 | 221 | 4.8 | 9.7 | 0.00 | 2.87 | 2.87 | 86 | 1012.5 |
| 20260906031420 | 26 | 215 | 8.0 | 14.5 | 0.00 | 2.87 | 2.87 | 86 | 1012.5 |
| 20260906030431 | 26 | 200 | 12.9 | 14.5 | 0.00 | 2.87 | 2.87 | 86 | 1012.6 |
| 20260906024229 | 26 | 191 | 14.5 | 19.3 | 0.00 | 2.87 | 2.87 | 84 | 1012.7 |
| 20260906023159 | 26 | 188 | 14.5 | 19.3 | 0.00 | 2.87 | 2.87 | 84 | 1012.9 |
| 20260906021012 | 26 | 124 | 3.2 | 12.9 | 0.00 | 2.87 | 2.87 | 83 | 1013.1 |
| 20260906020020 | 26 | 157 | 4.8 | 12.9 | 0.00 | 2.87 | 2.87 | 83 | 1013.1 |
| 20260906013909 | 26 | 165 | 4.8 | 17.7 | 0.00 | 2.87 | 2.87 | 83 | 1013.1 |
| 20260906012843 | 26 | 150 | 9.7 | 25.7 | 0.00 | 2.84 | 2.84 | 85 | 1013.2 |
| 20260906010718 | 26 | 176 | 14.5 | 22.5 | 0.00 | 2.84 | 2.84 | 82 | 1013.1 |
| 20260906004535 | 27 | 200 | 9.7 | 17.7 | 0.00 | 2.79 | 2.79 | 81 | 1012.6 |
| 20260906003512 | 27 | 118 | 8.0 | 14.5 | 0.00 | 2.79 | 2.79 | 76 | 1012.5 |
| 20260906002459 | 27 | 196 | 9.7 | 12.9 | 0.00 | 2.79 | 2.79 | 74 | 1012.5 |
| 20260906001517 | 27 | 198 | 9.7 | 14.5 | 0.00 | 2.79 | 2.79 | 74 | 1012.5 |
| 20260905235359 | 27 | 188 | 11.3 | 16.1 | 0.00 | 2.77 | 2.77 | 80 | 1012.4 |
| 20260905234411 | 26 | 198 | 11.3 | 19.3 | 0.00 | 2.77 | 2.77 | 81 | 1012.5 |
| 20260905233406 | 26 | 176 | 12.9 | 19.3 | 0.00 | 2.77 | 2.77 | 81 | 1012.3 |
| 20260905232349 | 25 | 165 | 8.0 | 14.5 | 0.15 | 2.77 | 2.77 | 83 | 1012.4 |
| 20260905231355 | 25 | 153 | 1.6 | 4.8 | 0.53 | 2.72 | 2.77 | 85 | 1012.4 |
| 20260905230355 | 24 | 219 | 8.0 | 29.0 | 1.73 | 2.59 | 2.62 | 84 | 1013.1 |
| 20260905224228 | 25 | 322 | 33.8 | 54.7 | 2.21 | 0.74 | 0.81 | 83 | 1014.4 |
| 20260905223215 | 27 | 334 | 25.7 | 54.7 | 0.00 | 0.20 | 0.20 | 79 | 1014.4 |
| 20260905222206 | 28 | 36 | 4.8 | 14.5 | 0.00 | 0.20 | 0.20 | 77 | 1012.8 |
| 20260905221201 | 28 | 118 | 4.8 | 14.5 | 0.00 | 0.20 | 0.20 | 76 | 1012.3 |
| 20260905220205 | 28 | 134 | 8.0 | 16.1 | 0.00 | 0.20 | 0.20 | 76 | 1012.3 |
| 20260905215154 | 28 | 98 | 12.9 | 22.5 | 0.00 | 0.20 | 0.20 | 77 | 1011.2 |
| 20260905214133 | 30 | 115 | 9.7 | 22.5 | 0.00 | 0.20 | 0.20 | 71 | 1011.6 |
| 20260905213124 | 30 | 112 | 9.7 | 24.1 | 0.00 | 0.20 | 0.20 | 67 | 1011.7 |
| 20260905212128 | 30 | 146 | 14.5 | 24.1 | 0.00 | 0.20 | 0.20 | 66 | 1011.5 |
| 20260905211120 | 30 | 148 | 12.9 | 22.5 | 0.00 | 0.20 | 0.20 | 70 | 1012.0 |
| 20260905210100 | 31 | 139 | 9.7 | 17.7 | 0.00 | 0.20 | 0.20 | 68 | 1012.0 |
| 20260905205027 | 30 | 105 | 6.4 | 17.7 | 0.00 | 0.20 | 0.20 | 69 | 1012.2 |
| 20260905204027 | 31 | 186 | 9.7 | 20.9 | 0.00 | 0.20 | 0.20 | 69 | 1012.1 |
| 20260905203023 | 30 | 135 | 11.3 | 20.9 | 0.00 | 0.20 | 0.20 | 70 | 1011.9 |
| 20260905202008 | 30 | 92 | 9.7 | 20.9 | 0.00 | 0.20 | 0.20 | 73 | 1011.8 |
| 20260905200950 | 30 | 137 | 11.3 | 20.9 | 0.00 | 0.20 | 0.20 | 77 | 1011.8 |
| 20260905195946 | 31 | 135 | 9.7 | 20.9 | 0.00 | 0.20 | 0.20 | 73 | 1011.9 |
| 20260905194925 | 31 | 74 | 9.7 | 17.7 | 0.00 | 0.20 | 0.20 | 77 | 1012.1 |
| 20260905193932 | 31 | 74 | 6.4 | 16.1 | 0.00 | 0.20 | 0.20 | 77 | 1011.9 |
| 20260905192916 | 31 | 96 | 6.4 | 14.5 | 0.00 | 0.20 | 0.20 | 74 | 1011.9 |
| 20260905191839 | 31 | 46 | 6.4 | 14.5 | 0.00 | 0.20 | 0.20 | 74 | 1012.2 |
| 20260905190830 | 32 | 42 | 3.2 | 14.5 | 0.00 | 0.20 | 0.20 | 71 | 1012.2 |
| 20260905185827 | 31 | 49 | 6.4 | 14.5 | 0.00 | 0.20 | 0.20 | 70 | 1012.2 |
| 20260905184803 | 32 | 122 | 4.8 | 8.0 | 0.00 | 0.20 | 0.20 | 63 | 1012.1 |
| 20260905183752 | 32 | 201 | 1.6 | 9.7 | 0.00 | 0.20 | 0.20 | 62 | 1012.1 |
| 20260905182734 | 31 | 189 | 4.8 | 35.4 | 0.20 | 0.20 | 0.20 | 62 | 1012.2 |
| 20260905181743 | 30 | 68 | 22.5 | 35.4 | 2.39 | 0.10 | 0.15 | 68 | 1012.5 |
| 20260905180801 | 32 | 284 | 9.7 | 16.1 | 0.00 | 0.00 | 0.00 | 63 | 1012.4 |
| 20260905175727 | 32 | 298 | 8.0 | 12.9 | 0.00 | 0.00 | 0.00 | 63 | 1012.5 |
| 20260905173545 | 32 | 241 | 1.6 | 8.0 | 0.00 | 0.00 | 0.00 | 64 | 1012.6 |
| 20260905172509 | 32 | 275 | 1.6 | 3.2 | 0.00 | 0.00 | 0.00 | 66 | 1012.8 |
| 20260905171444 | 32 | 267 | 3.2 | 16.1 | 0.00 | 0.00 | 0.00 | 67 | 1013.1 |
| 20260905170421 | 32 | 238 | 9.7 | 16.1 | 0.00 | 0.00 | 0.00 | 68 | 1013.2 |
| 20260905165406 | 32 | 232 | 9.7 | 16.1 | 0.00 | 0.00 | 0.00 | 66 | 1013.3 |
| 20260905164401 | 32 | 199 | 9.7 | 16.1 | 0.00 | 0.00 | 0.00 | 67 | 1013.5 |
| 20260905163340 | 31 | 226 | 9.7 | 16.1 | 0.00 | 0.00 | 0.00 | 67 | 1013.6 |
| 20260905162358 | 31 | 277 | 9.7 | 14.5 | 0.00 | 0.00 | 0.00 | 69 | 1013.7 |
| 20260905161327 | 31 | 209 | 6.4 | 12.9 | 0.00 | 0.00 | 0.00 | 70 | 1014.0 |
| 20260905160332 | 31 | 244 | 6.4 | 14.5 | 0.00 | 0.00 | 0.00 | 68 | 1014.0 |
| 20260905152955 | 31 | 246 | 12.9 | 19.3 | 0.00 | 0.00 | 0.00 | 71 | 1014.5 |